Regional Weather Roundup
Issued by NWS

Home | Current Version | Previous Version | Text Only | Print | Product List | Glossary On
Versions: 1 2 3 4 5 6 7 8 9 10 11 12 13 14 15 16 17 18 19 20 21 22 23 24 25 26 27 28 29 30 31 32 33 34 35 36 37 38 39 40 41 42 43 44 45 46 47 48 49 50
000
ASCA42 TJSJ 112310
RWRPR
PUERTO RICO/U.S. VIRGIN ISLANDS HOURLY WEATHER ROUNDUP
NATIONAL WEATHER SERVICE SAN JUAN PR
700 PM AST MON DEC 11 2017

PRZ001>002-007>008-010-120000-
PUERTO RICO

CITY           SKY/WX    TMP DP  RH WIND       PRES   REMARKS
SAN JUAN LMM   PTCLDY    79  70  73 NE7       29.91R
AGUADILLA      PTCLDY    73  68  83 E7        29.92R
$$

VIZ001>002-120000-
U.S. VIRGIN ISLANDS

CITY           SKY/WX    TMP DP  RH WIND       PRES   REMARKS
CHARLOTTE AMA    N/A    N/A N/A N/A MISG      29.90R
CHRISTIANSTED  PTCLDY    75  72  88 CALM      29.90R
$$

HOURLY WEATHER ROUNDUP FOR THE NEWS MEDIA

CITY           SKY/WX    TMP DP  RH WIND       PRES   REMARKS
ORLANDO        CLEAR     59  30  33 W3        30.17R
NEW YORK       MOCLDY    37  24  59 W9        30.03R WCI  30
NEWARK         MOCLDY    38  21  50 W8        30.02R WCI  32
CHICAGO        LGT SNOW  33  29  85 NW9       29.73R FOG     WCI  25
HARTFORD       PTCLDY    29  27  92 CALM      30.01R
BOSTON         MOCLDY    36  19  50 W8        30.03R WCI  30
DALLAS         MOCLDY    74  20  13 W6        30.09S
PHILADELPHIA   PTCLDY    37  22  54 SE5       30.02S WCI  33
LOS ANGELES    PTSUNNY   75  16  10 W12       30.16S
WASHINGTON DC  PTCLDY    40  26  57 SE7       29.94F


USA.gov is the U.S. government's official web portal to all federal, state and local government web resources and services.